This demonstration page uses our WeatherBlox Daily Observations layout. Learn more.

Left ArrowRight Arrow

40.92501, -98.34201

Hourly Observations for February 7, 2022

Temp ( °F °C ) Dew Point ( °F °C ) Humidity (%) Winds ( mph kmh ) Pressure ( in mb ) Visibility ( mi km ) Precip ( " mm )
12:53 am 00:53 Cloudy 34 1.1 19 -7.2 54 54 SW 10 17 30.31 1027 10 16 0.00 0.00
1:53 am 01:53 Mostly Cloudy 34 1.1 18 -7.8 52 52 SW 10 17 30.29 1026 10 16 0.00 0.00
2:53 am 02:53 Clear 33 0.6 18 -7.8 54 54 WSW 13 20 30.28 1026 10 16 0.00 0.00
3:53 am 03:53 Clear 31 -0.6 19 -7.2 61 61 WSW 12 19 30.27 1025 10 16 0.00 0.00
4:53 am 04:53 Clear 30 -1.1 20 -6.7 66 66 W 12 19 30.27 1025 10 16 0.00 0.00
5:53 am 05:53 Clear 28 -2.2 19 -7.2 69 69 W 10 17 30.27 1025 10 16 0.00 0.00
6:53 am 06:53 Cloudy 31 -0.6 20 -6.7 64 64 W 10 17 30.27 1025 10 16 0.00 0.00
7:53 am 07:53 Cloudy 32 0 21 -6.1 64 64 W 10 17 30.28 1026 10 16 0.00 0.00
8:53 am 08:53 Cloudy 36 2.2 20 -6.7 52 52 W 12 19 30.28 1025 10 16 0.00 0.00
9:53 am 09:53 Mostly Sunny 41 5 20 -6.7 43 43 W 14 22 30.27 1025 10 16 0.00 0.00
10:53 am 10:53 Sunny 49 9.4 21 -6.1 33 33 WNW 12 19 30.25 1024 10 16 0.00 0.00
11:53 am 11:53 Sunny 54 12.2 21 -6.1 28 28 WNW 14 22 30.22 1023 10 16 0.00 0.00
12:53 pm 12:53 Sunny 58 14.4 21 -6.1 24 24 W 15 24 30.18 1022 10 16 0.00 0.00
1:53 pm 13:53 Sunny 60 15.6 21 -6.1 22 22 W 13 20 30.14 1021 10 16 0.00 0.00
2:53 pm 14:53 Sunny 61 16.1 21 -6.1 21 21 NW 18 30 30.12 1020 10 16 0.00 0.00
3:53 pm 15:53 Sunny 61 16.1 21 -6.1 21 21 NW 15 24 30.11 1020 10 16 0.00 0.00
4:53 pm 16:53 Sunny 60 15.6 19 -7.2 20 20 WNW 12 19 30.10 1019 10 16 0.00 0.00
5:53 pm 17:53 Sunny 49 9.4 18 -7.8 29 29 W 7 11 30.10 1019 10 16 0.00 0.00
6:53 pm 18:53 Clear 48 8.9 19 -7.2 32 32 SW 7 11 30.10 1019 10 16 0.00 0.00
7:53 pm 19:53 Clear 40 4.4 18 -7.8 41 41 SW 9 15 30.09 1019 10 16 0.00 0.00
8:53 pm 20:53 Clear 46 7.8 19 -7.2 34 34 WSW 13 20 30.07 1018 10 16 0.00 0.00
9:53 pm 21:53 Clear 44 6.7 18 -7.8 35 35 WSW 15 24 30.06 1018 10 16 0.00 0.00
10:53 pm 22:53 Clear 44 6.7 18 -7.8 35 35 WSW 15 24 30.02 1017 10 16 0.00 0.00
11:53 pm 23:53 Clear 43 6.1 18 -7.8 37 37 WSW 16 26 30.00 1016 10 16 0.00 0.00

Powered by AerisWeather